Zurück zum Katalog

STARLINK-35779

AktivKommunikationVLEO
NORAD 67047·PAYLOAD·🇺🇸 United States

Gestartet Dec 11, 2025 von Cape Canaveral Space Force Station

Loading…

Nächste Überflüge (nächste 24 Stunden)

TLE

AktuellSource: CelesTrak SupGP

Epoche: Sep 14, 2026, 21:29 UTC

1 67047C 25294T   26257.89562500  .00074667  00000+0  27045-2 0  2579
2 67047  43.0044  49.4627 0001525 268.2074 202.3965 15.27540183    19

Verfolge STARLINK-35779 in Echtzeit mit AllMySat

Download on the App Store